Mineral Point, WI

1:58 PM CDT on July 28, 2017 (GMT -0500)
Iowa County

Weather History for KMRJ - January, 2012

Change the Weather History Date:

Tuesday, January 24, 2012

  Actual Average (KLNR) Record (KLNR)
Temperature  
Mean Temperature 26 °F -  
Max Temperature 30 °F 25 °F 39 °F (2006)
Min Temperature 23 °F 9 °F -18 °F (2008)
Degree Days  
Heating Degree Days 38    
Moisture  
Dew Point 20 °F    
Average Humidity 76    
Maximum Humidity 86    
Minimum Humidity 64    
Precipitation  
Precipitation 0.00 in - - ()
Sea Level Pressure  
Sea Level Pressure 30.13 in    
Wind  
Wind Speed 12 mph (West)    
Max Wind Speed 17 mph    
Max Gust Speed 22 mph    
Visibility 10 miles    
Events      
Averages and records for this station are not official NWS values.
T = Trace of Precipitation, MM = Missing Value Source: NWS Daily Summary

Daily Weather History Graph

Daily Weather History Graph

Search for Another Location

Airport or City:

Trip Planner

Search our weather history database for the weather conditions in past years. The results will help you decide how hot, cold, wet, or windy it might be!

Date:

Astronomy

Jan. 24, 2012 Rise Set
Actual Time 7:23 AM CST 5:02 PM CST
Civil Twilight 6:52 AM CST 5:33 PM CST
Nautical Twilight 6:18 AM CST 6:07 PM CST
Astronomical Twilight 5:44 AM CST 6:41 PM CST
Moon 7:49 AM CST (1/24) 6:58 PM CST (1/24)
Length of Visible Light 10h 40m
Length of Day
9h 39m
New Moon, 2% of the Moon is Illuminated
Jan 24
New Moon
Jan 30
First Quarter
Feb 7
Full
Feb 14
Last Quarter
Feb 21
New

Hourly Weather History & Observations

Time (CST) Temp. Windchill Dew Point Humidity Pressure Visibility Wind Dir Wind Speed Gust Speed Precip Events Conditions
12:15 AM 26.6 °F 13.8 °F 21.2 °F 80% 29.87 in 10.0 mi West 17.3 mph - N/A   Overcast
12:35 AM 26.6 °F 13.8 °F 21.2 °F 80% 29.88 in 10.0 mi West 17.3 mph 21.9 mph N/A   Overcast
12:55 AM 26.6 °F 13.8 °F 21.2 °F 80% 29.88 in 10.0 mi West 17.3 mph - N/A   Overcast
1:15 AM 26.6 °F 13.8 °F 21.2 °F 80% 29.89 in 10.0 mi West 17.3 mph - N/A   Overcast
1:35 AM 26.6 °F 15.2 °F 19.4 °F 74% 29.91 in 10.0 mi West 13.8 mph - N/A   Overcast
1:55 AM 24.8 °F 13.4 °F 19.4 °F 80% 29.92 in 10.0 mi West 12.7 mph - N/A   Overcast
2:15 AM 24.8 °F 12.9 °F 19.4 °F 80% 29.92 in 10.0 mi West 13.8 mph - N/A   Overcast
2:55 AM 24.8 °F 12.4 °F 19.4 °F 80% 29.94 in 10.0 mi West 15.0 mph - N/A   Overcast
3:15 AM 24.8 °F 13.4 °F 19.4 °F 80% 29.94 in 10.0 mi West 12.7 mph 17.3 mph N/A   Overcast
3:35 AM 24.8 °F 12.4 °F 19.4 °F 80% 29.96 in 10.0 mi West 15.0 mph - N/A   Overcast
3:55 AM 24.8 °F 14.0 °F 19.4 °F 80% 29.97 in 10.0 mi West 11.5 mph 16.1 mph N/A   Overcast
4:15 AM 24.8 °F 12.9 °F 19.4 °F 80% 29.98 in 10.0 mi West 13.8 mph - N/A   Overcast
4:35 AM 24.8 °F 12.4 °F 19.4 °F 80% 29.99 in 10.0 mi West 15.0 mph - N/A   Overcast
4:55 AM 24.8 °F 13.4 °F 19.4 °F 80% 30.00 in 10.0 mi West 12.7 mph - N/A   Overcast
5:15 AM 24.8 °F 12.9 °F 19.4 °F 80% 30.02 in 10.0 mi West 13.8 mph - N/A   Overcast
5:35 AM 24.8 °F 11.9 °F 19.4 °F 80% 30.03 in 10.0 mi West 16.1 mph 21.9 mph N/A   Overcast
6:15 AM 24.8 °F 12.4 °F 19.4 °F 80% 30.06 in 10.0 mi West 15.0 mph - N/A   Overcast
6:35 AM 24.8 °F 12.9 °F 19.4 °F 80% 30.06 in 10.0 mi West 13.8 mph - N/A   Overcast
6:55 AM 24.8 °F 12.4 °F 19.4 °F 80% 30.07 in 10.0 mi West 15.0 mph - N/A   Overcast
7:15 AM 24.8 °F 13.4 °F 19.4 °F 80% 30.09 in 10.0 mi WNW 12.7 mph - N/A   Overcast
7:35 AM 24.8 °F 14.6 °F 19.4 °F 80% 30.10 in 10.0 mi WNW 10.4 mph 19.6 mph N/A   Overcast
7:55 AM 24.8 °F 14.0 °F 19.4 °F 80% 30.10 in 10.0 mi West 11.5 mph 17.3 mph N/A   Overcast
8:15 AM 24.8 °F 15.3 °F 19.4 °F 80% 30.12 in 10.0 mi WNW 9.2 mph - N/A   Overcast
8:35 AM 26.6 °F 16.8 °F 19.4 °F 74% 30.12 in 10.0 mi WNW 10.4 mph - N/A   Overcast
9:15 AM 26.6 °F 16.8 °F 19.4 °F 74% 30.13 in 10.0 mi West 10.4 mph - N/A   Overcast
9:35 AM 26.6 °F 16.2 °F 19.4 °F 74% 30.14 in 10.0 mi West 11.5 mph - N/A   Scattered Clouds
9:55 AM 26.6 °F 16.2 °F 19.4 °F 74% 30.15 in 10.0 mi WNW 11.5 mph - N/A   Clear
10:15 AM 26.6 °F 15.7 °F 19.4 °F 74% 30.16 in 10.0 mi WNW 12.7 mph - N/A   Clear
10:35 AM 26.6 °F 16.8 °F 19.4 °F 74% 30.17 in 10.0 mi WNW 10.4 mph - N/A   Clear
10:55 AM 28.4 °F 19.1 °F 19.4 °F 69% 30.17 in 10.0 mi WNW 10.4 mph - N/A   Clear
11:15 AM 28.4 °F 18.0 °F 21.2 °F 74% 30.17 in 10.0 mi West 12.7 mph - N/A   Clear
11:35 AM 28.4 °F 18.5 °F 21.2 °F 74% 30.17 in 10.0 mi West 11.5 mph - N/A   Clear
11:55 AM 28.4 °F 19.1 °F 21.2 °F 74% 30.19 in 10.0 mi WNW 10.4 mph - N/A   Clear
12:15 PM 28.4 °F 21.2 °F 19.4 °F 69% 30.19 in 10.0 mi WNW 6.9 mph - N/A   Clear
12:35 PM 28.4 °F 21.2 °F 21.2 °F 74% 30.19 in 10.0 mi West 6.9 mph - N/A   Clear
12:55 PM 30.2 °F 23.4 °F 21.2 °F 69% 30.19 in 10.0 mi West 6.9 mph - N/A   Clear
1:15 PM 30.2 °F 22.6 °F 21.2 °F 69% 30.19 in 10.0 mi West 8.1 mph - N/A   Clear
1:35 PM 30.2 °F 21.3 °F 21.2 °F 69% 30.20 in 10.0 mi West 10.4 mph - N/A   Clear
1:55 PM 30.2 °F 21.9 °F 21.2 °F 69% 30.21 in 10.0 mi West 9.2 mph - N/A   Clear
2:15 PM 30.2 °F 21.3 °F 21.2 °F 69% 30.21 in 10.0 mi West 10.4 mph - N/A   Clear
2:35 PM 30.2 °F 22.6 °F 21.2 °F 69% 30.21 in 10.0 mi WSW 8.1 mph - N/A   Clear
2:55 PM 30.2 °F 23.4 °F 21.2 °F 69% 30.22 in 10.0 mi West 6.9 mph - N/A   Clear
3:15 PM 30.2 °F 22.6 °F 21.2 °F 69% 30.22 in 10.0 mi West 8.1 mph - N/A   Clear
3:35 PM 30.2 °F 22.6 °F 21.2 °F 69% 30.24 in 10.0 mi West 8.1 mph - N/A   Clear
3:55 PM 30.2 °F 23.4 °F 19.4 °F 64% 30.24 in 10.0 mi West 6.9 mph - N/A   Clear
4:15 PM 28.4 °F 22.2 °F 19.4 °F 69% 30.24 in 10.0 mi West 5.8 mph - N/A   Clear
4:35 PM 28.4 °F 22.2 °F 19.4 °F 69% 30.24 in 10.0 mi West 5.8 mph - N/A   Clear
5:15 PM 26.6 °F 19.1 °F 19.4 °F 74% 30.26 in 10.0 mi WSW 6.9 mph - N/A   Clear
5:35 PM 26.6 °F 22.6 °F 19.4 °F 74% 30.25 in 10.0 mi WSW 3.5 mph - N/A   Clear
5:55 PM 26.6 °F - 19.4 °F 74% 30.26 in 10.0 mi Calm Calm - N/A   Clear
6:15 PM 24.8 °F 19.1 °F 19.4 °F 80% 30.27 in 10.0 mi West 4.6 mph - N/A   Clear
6:35 PM 24.8 °F 17.9 °F 19.4 °F 80% 30.29 in 10.0 mi West 5.8 mph - N/A   Clear
6:55 PM 24.8 °F 16.9 °F 19.4 °F 80% 30.29 in 10.0 mi West 6.9 mph - N/A   Clear
7:15 PM 24.8 °F 19.1 °F 19.4 °F 80% 30.30 in 10.0 mi WNW 4.6 mph - N/A   Clear
7:35 PM 24.8 °F 20.5 °F 19.4 °F 80% 30.29 in 10.0 mi WNW 3.5 mph - N/A   Clear
7:55 PM 23.0 °F 15.8 °F 19.4 °F 86% 30.30 in 10.0 mi WNW 5.8 mph - N/A   Clear
8:15 PM 23.0 °F - 19.4 °F 86% 30.28 in 10.0 mi Calm Calm - N/A   Clear
8:35 PM 23.0 °F 17.0 °F 19.4 °F 86% 30.27 in 10.0 mi NNE 4.6 mph - N/A   Clear
8:55 PM 24.8 °F 20.5 °F 19.4 °F 80% 30.27 in 10.0 mi North 3.5 mph - N/A   Clear
9:15 PM 23.0 °F - 19.4 °F 86% 30.26 in 10.0 mi Calm Calm - N/A   Clear
9:35 PM 23.0 °F 18.4 °F 17.6 °F 80% 30.26 in 10.0 mi ESE 3.5 mph - N/A   Clear
9:55 PM 23.0 °F 18.4 °F 19.4 °F 86% 30.26 in 10.0 mi SSE 3.5 mph - N/A   Clear
10:15 PM 23.0 °F - 19.4 °F 86% 30.24 in 10.0 mi Calm Calm - N/A   Clear
10:35 PM 21.2 °F - 17.6 °F 86% 30.26 in 10.0 mi Calm Calm - N/A   Scattered Clouds
10:55 PM 19.4 °F - 15.8 °F 86% 30.27 in 7.0 mi Calm Calm - N/A   Clear
11:15 PM 21.2 °F - 17.6 °F 86% 30.27 in 7.0 mi Calm Calm - N/A   Clear
11:35 PM 21.2 °F - 17.6 °F 86% 30.27 in 7.0 mi Calm Calm - N/A   Scattered Clouds
11:55 PM 23.0 °F - 19.4 °F 86% 30.28 in 7.0 mi Calm Calm - N/A   Scattered Clouds